Glencoe, MN

10:51 AM CST on December 11, 2019 (GMT -0600)
Glencoe Municipal

Weather History for KGYL - November, 2019

Change the Weather History Date:

Tuesday, November 12, 2019

  Actual Average (WUND) Record (WUND)
Temperature  
Mean Temperature 10 °F -  
Max Temperature 20 °F - - (-1)
Min Temperature 2 °F - - (-1)
Degree Days  
Heating Degree Days 54    
Moisture  
Dew Point 4 °F    
Average Humidity 69    
Maximum Humidity 86    
Minimum Humidity 49    
Precipitation  
Precipitation 0.00 in - - ()
Sea Level Pressure  
Sea Level Pressure 30.32 in    
Wind  
Wind Speed 7 mph (South)    
Max Wind Speed 18 mph    
Max Gust Speed 25 mph    
Visibility 10 miles    
Events      
Averages and records for this station are not official NWS values.
T = Trace of Precipitation, MM = Missing Value Source: NWS Daily Summary

Daily Weather History Graph

Daily Weather History Graph

Search for Another Location

Airport or City:

Astronomy

Nov. 12, 2019 Rise Set
Actual Time 7:09 AM CST 4:51 PM CST
Civil Twilight 6:37 AM CST 5:22 PM CST
Nautical Twilight 6:02 AM CST 5:57 PM CST
Astronomical Twilight 5:28 AM CST 6:32 PM CST
Moon 5:19 PM CST (11/12) 6:59 AM CST (11/12)
Length of Visible Light 10h 45m
Length of Day
9h 42m
Full, 100% of the Moon is Illuminated
Nov 12
Full
Nov 19
Last Quarter
Nov 26
New
Dec 4
First Quarter
Dec 11
Full

Hourly Weather History & Observations

Time (CST) Temp. Windchill Dew Point Humidity Pressure Visibility Wind Dir Wind Speed Gust Speed Precip Events Conditions
12:15 AM 5.9 °F -3.0 °F 1.6 °F 82% 30.60 in 10.0 mi West 4.6 mph - N/A   Clear
12:35 AM 6.3 °F -4.1 °F 1.8 °F 82% 30.60 in 10.0 mi West 5.8 mph - N/A   Clear
12:55 AM 5.9 °F -3.0 °F 1.8 °F 83% 30.60 in 10.0 mi West 4.6 mph - N/A   Clear
12:56 AM 6.1 °F -2.8 °F 1.8 °F 82% 30.59 in 10.0 mi West 4.6 mph - N/A   Clear
1:17 AM 5.7 °F -1.3 °F 1.4 °F 82% 30.59 in 10.0 mi West 3.5 mph - N/A   Clear
1:35 AM 5.9 °F - 1.6 °F 82% 30.58 in 10.0 mi Calm Calm - N/A   Clear
1:59 AM 5.0 °F - 1.0 °F 84% 30.58 in 10.0 mi Calm Calm - N/A   Clear
2:16 AM 5.0 °F -2.1 °F 0.9 °F 83% 30.58 in 10.0 mi WSW 3.5 mph - N/A   Clear
2:35 AM 4.6 °F -2.5 °F 0.5 °F 83% 30.58 in 10.0 mi West 3.5 mph - N/A   Clear
2:36 AM 4.8 °F -2.3 °F 0.7 °F 83% 30.58 in 10.0 mi West 3.5 mph - N/A   Clear
2:59 AM 4.8 °F -2.3 °F 0.5 °F 82% 30.58 in 10.0 mi West 3.5 mph - N/A   Clear
3:16 AM 4.8 °F - 0.5 °F 82% 30.57 in 10.0 mi Calm Calm - N/A   Clear
3:35 AM 4.1 °F -5.1 °F 0.5 °F 85% 30.56 in 10.0 mi West 4.6 mph - N/A   Clear
3:36 AM 4.1 °F -5.1 °F 0.5 °F 85% 30.56 in 10.0 mi WSW 4.6 mph - N/A   Clear
3:59 AM 4.1 °F -3.2 °F 0.1 °F 84% 30.56 in 10.0 mi WSW 3.5 mph - N/A   Clear
4:17 AM 3.9 °F -3.4 °F -0.2 °F 83% 30.56 in 10.0 mi WSW 3.5 mph - N/A   Clear
4:35 AM 3.2 °F - -0.4 °F 85% 30.55 in 10.0 mi Calm Calm - N/A   Clear
4:36 AM 3.2 °F - -0.4 °F 85% 30.55 in 10.0 mi Calm Calm - N/A   Clear
4:58 AM 3.0 °F - -0.4 °F 86% 30.54 in 10.0 mi Calm Calm - N/A   Clear
5:15 AM 3.0 °F - -0.6 °F 85% 30.53 in 10.0 mi Calm Calm - N/A   Clear
5:35 AM 3.6 °F -3.8 °F -0.4 °F 84% 30.53 in 10.0 mi SW 3.5 mph - N/A   Clear
5:36 AM 3.6 °F - -0.4 °F 84% 30.53 in 10.0 mi Calm Calm - N/A   Clear
5:57 AM 3.2 °F -4.2 °F -0.4 °F 85% 30.53 in 10.0 mi SSW 3.5 mph - N/A   Clear
6:15 AM 2.8 °F -4.6 °F -0.8 °F 85% 30.52 in 10.0 mi South 3.5 mph - N/A   Clear
6:35 AM 3.0 °F -4.4 °F -0.4 °F 86% 30.50 in 10.0 mi SSW 3.5 mph - N/A   Clear
6:57 AM 3.2 °F -4.2 °F -0.4 °F 85% 30.50 in 10.0 mi SSW 3.5 mph - N/A   Clear
7:15 AM 2.8 °F -4.6 °F -0.6 °F 86% 30.51 in 10.0 mi SSW 3.5 mph - N/A   Clear
7:16 AM 2.8 °F -4.6 °F -0.6 °F 86% 30.50 in 10.0 mi SSW 3.5 mph - N/A   Clear
7:36 AM 3.2 °F -6.2 °F -0.4 °F 85% 30.50 in 10.0 mi SSW 4.6 mph - N/A   Clear
7:57 AM 4.1 °F -3.2 °F 0.5 °F 85% 30.50 in 10.0 mi South 3.5 mph - N/A   Clear
8:15 AM 5.2 °F -1.9 °F 1.4 °F 84% 30.50 in 7.0 mi SSW 3.5 mph - N/A   Clear
8:16 AM 5.4 °F -3.6 °F 1.4 °F 84% 30.50 in 10.0 mi SSW 4.6 mph - N/A   Clear
8:35 AM 7.0 °F -1.7 °F 2.8 °F 83% 30.49 in 7.0 mi South 4.6 mph - N/A   Clear
8:36 AM 7.2 °F -1.5 °F 2.8 °F 82% 30.50 in 7.0 mi South 4.6 mph - N/A   Clear
8:57 AM 9.0 °F -0.9 °F 3.7 °F 79% 30.49 in 10.0 mi South 5.8 mph - N/A   Clear
9:59 AM 12.2 °F -2.5 °F 3.2 °F 67% 30.46 in 10.0 mi SSW 12.7 mph - N/A   Clear
10:07 AM - - - N/A% 30.46 in 10.0 mi SSW 13.8 mph 17.3 mph N/A   Clear
10:21 AM 13.6 °F -0.7 °F 2.7 °F 62% 30.44 in 10.0 mi South 12.7 mph 16.1 mph N/A   Clear
10:38 AM 14.7 °F 1.4 °F 3.6 °F 61% 30.43 in 10.0 mi South 11.5 mph - N/A   Clear
10:56 AM 15.3 °F 3.5 °F 3.0 °F 58% 30.41 in 10.0 mi South 9.2 mph 16.1 mph N/A   Clear
11:15 AM 15.4 °F 3.0 °F 1.9 °F 55% 30.40 in 10.0 mi South 10.4 mph 18.4 mph N/A   Clear
11:16 AM 15.4 °F 3.8 °F 2.3 °F 56% 30.40 in 10.0 mi South 9.2 mph 18.4 mph N/A   Clear
11:35 AM 16.3 °F 1.6 °F 2.3 °F 54% 30.39 in 7.0 mi South 15.0 mph - N/A   Clear
11:59 AM 17.1 °F 3.0 °F 2.3 °F 52% 30.37 in 10.0 mi South 13.8 mph 17.3 mph N/A   Clear
12:17 PM 16.9 °F 4.1 °F 2.1 °F 52% 30.36 in 10.0 mi South 11.5 mph 18.4 mph N/A   Clear
12:35 PM 17.2 °F 6.0 °F 1.6 °F 50% 30.35 in 10.0 mi South 9.2 mph 16.1 mph N/A   Clear
12:36 PM 17.2 °F 7.8 °F 1.9 °F 51% 30.35 in 10.0 mi South 6.9 mph - N/A   Clear
12:55 PM 19.2 °F 8.4 °F 2.8 °F 49% 30.33 in 10.0 mi South 9.2 mph 24.2 mph N/A   Clear
1:35 PM 18.5 °F 7.5 °F 2.7 °F 50% 30.29 in 10.0 mi SSE 9.2 mph 17.3 mph N/A   Clear
1:36 PM 18.5 °F 7.5 °F 2.7 °F 50% 30.29 in 10.0 mi SSE 9.2 mph 17.3 mph N/A   Clear
1:55 PM 18.5 °F 6.1 °F 2.7 °F 50% 30.28 in 10.0 mi SE 11.5 mph 17.3 mph N/A   Clear
2:16 PM 18.7 °F 5.7 °F 3.7 °F 52% 30.27 in 10.0 mi SE 12.7 mph - N/A   Clear
2:35 PM 19.0 °F 6.1 °F 4.3 °F 53% 30.24 in 10.0 mi SSE 12.7 mph 19.6 mph N/A   Clear
2:36 PM 19.0 °F 7.5 °F 4.3 °F 53% 30.24 in 10.0 mi SSE 10.4 mph 19.6 mph N/A   Clear
2:59 PM 19.0 °F 4.5 °F 5.0 °F 54% 30.23 in 10.0 mi SE 16.1 mph 21.9 mph N/A   Clear
3:16 PM 19.0 °F 6.8 °F 5.7 °F 56% 30.21 in 10.0 mi SSE 11.5 mph 19.6 mph N/A   Clear
3:35 PM 19.2 °F 6.4 °F 5.9 °F 56% 30.19 in 10.0 mi SSE 12.7 mph 18.4 mph N/A   Clear
3:36 PM 19.2 °F 5.3 °F 5.9 °F 56% 30.19 in 10.0 mi SSE 15.0 mph 19.6 mph N/A   Clear
3:55 PM 19.0 °F 5.6 °F 6.4 °F 58% 30.18 in 10.0 mi SE 13.8 mph 21.9 mph N/A   Clear
3:59 PM 19.0 °F 6.8 °F 6.6 °F 59% 30.17 in 10.0 mi SSE 11.5 mph 21.9 mph N/A   Clear
4:16 PM 18.9 °F 5.3 °F 6.6 °F 59% 30.16 in 10.0 mi SSE 13.8 mph 23.0 mph N/A   Clear
4:35 PM 18.5 °F 2.9 °F 6.6 °F 60% 30.14 in 10.0 mi SE 18.4 mph 25.3 mph N/A   Clear
4:36 PM 18.5 °F 2.9 °F 6.6 °F 60% 30.14 in 10.0 mi SE 18.4 mph 25.3 mph N/A   Clear
4:58 PM 18.5 °F 4.3 °F 6.4 °F 59% 30.13 in 10.0 mi SSE 15.0 mph 24.2 mph N/A   Clear
5:15 PM 18.5 °F 4.9 °F 6.8 °F 60% 30.14 in 10.0 mi SSE 13.8 mph 19.6 mph N/A   Clear
5:35 PM 18.5 °F 4.9 °F 7.0 °F 61% 30.14 in 10.0 mi SSE 13.8 mph 20.7 mph N/A   Clear
5:40 PM 18.5 °F 5.5 °F 6.8 °F 60% 30.14 in 10.0 mi SSE 12.7 mph 20.7 mph N/A   Clear
5:56 PM 18.5 °F 4.3 °F 6.6 °F 60% 30.13 in 10.0 mi South 15.0 mph 23.0 mph N/A   Clear
6:15 PM 18.5 °F 6.1 °F 6.8 °F 60% 30.12 in 10.0 mi South 11.5 mph 18.4 mph N/A   Clear
6:16 PM 18.5 °F 6.8 °F 6.8 °F 60% 30.12 in 10.0 mi South 10.4 mph 18.4 mph N/A   Clear
6:36 PM 18.5 °F 5.5 °F 6.4 °F 59% 30.11 in 10.0 mi South 12.7 mph 25.3 mph N/A   Clear
6:55 PM 18.5 °F 7.5 °F 7.0 °F 61% 30.11 in 10.0 mi South 9.2 mph 17.3 mph N/A   Clear
6:56 PM 18.5 °F 7.5 °F 7.2 °F 61% 30.11 in 10.0 mi SSE 9.2 mph 16.1 mph N/A   Clear
7:15 PM 18.1 °F 5.0 °F 6.8 °F 61% 30.11 in 10.0 mi South 12.7 mph 21.9 mph N/A   Clear
7:37 PM 18.1 °F 5.0 °F 7.2 °F 62% 30.11 in 10.0 mi South 12.7 mph 21.9 mph N/A   Mostly Cloudy
7:55 PM 18.0 °F 6.9 °F 7.5 °F 64% 30.09 in 10.0 mi SSE 9.2 mph 21.9 mph N/A   Overcast
8:15 PM 17.8 °F 5.2 °F 7.5 °F 64% 30.08 in 10.0 mi South 11.5 mph 24.2 mph N/A   Mostly Cloudy
8:16 PM 18.0 °F 4.8 °F 7.5 °F 64% 30.08 in 10.0 mi South 12.7 mph 24.2 mph N/A   Mostly Cloudy
8:38 PM 18.0 °F 4.2 °F 7.7 °F 64% 30.07 in 10.0 mi South 13.8 mph 23.0 mph N/A   Mostly Cloudy
8:55 PM 18.1 °F 4.4 °F 7.7 °F 64% 30.05 in 10.0 mi SSE 13.8 mph 19.6 mph N/A   Mostly Cloudy
8:56 PM 18.1 °F 5.0 °F 7.7 °F 64% 30.05 in 10.0 mi SSE 12.7 mph 19.6 mph N/A   Mostly Cloudy
9:15 PM 18.3 °F 4.6 °F 8.2 °F 65% 30.03 in 10.0 mi South 13.8 mph 20.7 mph N/A   Scattered Clouds
9:16 PM 18.3 °F 5.2 °F 8.2 °F 65% 30.03 in 10.0 mi SSE 12.7 mph 20.7 mph N/A   Scattered Clouds
9:55 PM 18.5 °F 6.1 °F 8.8 °F 66% 30.03 in 10.0 mi SSE 11.5 mph 18.4 mph N/A   Scattered Clouds
10:19 PM 19.0 °F 7.5 °F 9.3 °F 66% 30.02 in 10.0 mi SSE 10.4 mph 17.3 mph N/A   Scattered Clouds
10:36 PM 19.2 °F 6.4 °F 9.5 °F 66% 30.01 in 10.0 mi SSE 12.7 mph 19.6 mph N/A   Scattered Clouds
10:55 PM 19.4 °F 7.9 °F 9.9 °F 66% 30.00 in 10.0 mi SSE 10.4 mph 17.3 mph N/A   Mostly Cloudy
10:56 PM 19.4 °F 7.2 °F 9.9 °F 66% 30.00 in 10.0 mi SSE 11.5 mph 17.3 mph N/A   Mostly Cloudy
11:19 PM 19.8 °F 6.5 °F 10.2 °F 67% 29.98 in 10.0 mi SSE 13.8 mph 19.6 mph N/A   Overcast
11:37 PM 19.8 °F 7.7 °F 10.4 °F 67% 29.97 in 10.0 mi SSE 11.5 mph 18.4 mph N/A   Mostly Cloudy
11:55 PM 20.1 °F 8.8 °F 10.4 °F 66% 29.96 in 10.0 mi SSE 10.4 mph - N/A   Mostly Cloudy